GFSSE_2pvu_pres_021.txt.gz
Presure
103 114 124 111 115 122 107 133 102 94 138 99 149 116 182 165 175 151 188 169 136 162 177 125 193 166 181 144 155 98 124 127 122 116 122 147 223 204 122 256 232 127 123
109 119 109 97 116 119 130 101 102 138 159 134 159 161 148 124 169 180 148 178 177 189 159 144 192 198 136 130 127 140 185 122 120 128 218 167 124 162 237 230 130 130 244
116 118 100 115 122 126 140 133 125 146 135 132 175 127 179 137 119 121 116 129 177 127 173 162 122 126 194 176 107 133 125 125 131 142 202 121 150 222 228 131 216 225 149
117 110 133 141 138 133 122 136 123 132 109 129 156 151 120 119 170 143 181 176 158 179 121 126 133 119 191 125 120 123 134 129 223 201 125 232 128 131 244 171 178 227 254
127 123 110 110 110 165 122 136 140 106 136 112 190 161 131 174 148 189 199 207 184 197 189 127 129 151 139 121 118 127 159 209 126 188 228 133 136 228 177 242 226 210 231
113 126 127 113 131 112 118 142 109 110 158 142 163 116 108 182 136 137 173 172 126 189 193 121 117 117 115 120 88 214 133 138 126 201 135 196 236 208 237 223 219 223 222
103 121 129 146 103 108 121 116 153 123 156 161 110 178 119 101 173 120 136 164 118 195 204 148 193 189 186 184 189 157 206 193 221 133 232 134 218 223 217 207 220 205 219
121 121 140 124 117 137 114 156 117 122 155 123 123 165 99 115 140 187 172 124 189 173 177 160 159 123 163 195 168 222 198 139 223 163 232 225 208 244 234 220 212 207 211
135 194 124 138 123 159 127 137 150 170 121 124 127 119 184 126 185 199 116 176 195 144 117 163 142 201 202 216 232 206 164 221 226 176 219 200 217 220 219 209 229 215 208
113 132 140 126 124 143 144 158 164 120 196 128 187 201 133 125 171 185 130 172 193 183 207 202 202 203 202 208 135 228 213 227 218 207 199 223 221 217 206 195 208 217 219
129 121 124 108 136 156 179 162 162 198 197 182 124 196 205 161 185 129 212 189 185 193 190 194 205 209 218 228 241 223 158 204 203 200 213 221 223 208 205 206 210 204 220
122 126 135 120 148 165 190 188 165 161 178 161 194 125 175 171 197 191 186 195 199 194 203 201 217 215 257 250 127 225 206 214 217 216 196 221 207 203 208 207 203 207 211
134 126 142 187 196 182 186 187 193 173 194 195 147 128 188 182 203 192 194 192 205 225 203 217 233 227 241 219 222 214 205 214 216 220 225 206 196 192 196 196 201 197 197
129 125 194 200 196 192 206 179 192 185 190 124 126 187 143 167 192 201 204 253 227 251 250 228 129 237 144 215 220 216 220 232 242 235 218 195 187 193 191 192 195 196 189
126 200 198 204 181 147 205 168 176 123 120 124 158 197 193 202 201 211 212 233 221 227 213 206 237 229 230 230 228 221 211 208 203 213 206 186 188 193 196 194 192 195 196
177 206 204 194 199 116 199 180 119 169 189 194 196 196 204 217 216 214 237 233 231 174 225 230 229 230 226 226 225 221 215 206 202 201 200 199 193 194 197 192 193 199 193
214 217 230 179 156 200 198 126 126 200 211 231 215 214 207 241 232 224 155 150 210 221 224 226 234 223 210 194 200 199 203 204 202 203 203 209 209 205 210 217 216 214 211
225 227 219 220 211 202 204 204 213 210 204 198 209 218 217 217 217 217 215 212 218 212 216 220 200 193 209 214 214 216 221 214 212 208 208 209 207 211 179 189 200 195 183
227 217 221 207 207 206 197 199 202 212 219 216 217 216 209 216 220 218 221 209 214 216 195 196 207 211 203 194 197 204 204 203 200 205 209 211 204 205 207 208 201 204 207
211 211 211 213 217 221 219 218 216 217 216 215 217 232 215 215 216 217 216 204 200 208 211 205 201 203 204 198 201 201 202 202 207 214 211 209 202 196 202 198 201 203 204
218 217 220 218 217 216 212 210 210 221 225 211 234 214 219 217 205 202 210 197 197 206 209 201 193 203 217 223 223 215 204 204 200 203 202 200 203 205 205 206 208 212 205
214 212 210 210 211 216 218 213 211 216 219 218 212 203 202 204 201 195 206 203 192 197 214 219 228 235 238 223 201 193 187 194 203 207 208 211 215 215 212 215 219 223 222
212 216 217 213 211 219 225 223 215 207 204 205 204 203 199 207 209 205 191 221 236 241 242 240 217 200 201 198 188 187 194 203 212 212 216 212 211 226 233 240 233 234 256
211 218 226 222 217 213 207 201 205 206 204 202 205 204 214 254 238 236 235 229 219 212 203 198 199 194 189 199 212 206 216 213 213 222 224 217 226 229 267 273 272 282 289
217 214 208 205 199 205 208 202 203 201 195 213 216 215 216 236 240 251 217 214 205 201 198 200 205 195 200 205 210 219 218 214 219 268 273 273 300 317 325 326 320 325 408
205 194 195 205 194 203 196 193 201 214 219 221 220 222 221 220 215 208 203 202 196 199 200 198 203 203 205 207 217 222 242 270 268 282 323 305 289 355 488 498 475 458 451

GFSSE_2pvu_pres_024.txt.gz
Presure
113 109 120 106 117 106 112 103 114 110 111 111 136 132 140 140 129 147 165 155 149 140 173 161 180 134 181 166 164 173 187 141 151 127 152 160 179 180 120 125 128 121 107
102 117 114 120 108 113 119 110 103 109 119 139 131 113 119 132 141 141 153 170 174 154 124 128 130 123 111 175 182 124 118 127 119 130 186 121 122 129 133 132 134 143 197
114 116 101 101 128 136 96 90 122 149 141 113 132 124 133 135 117 109 176 166 159 176 116 108 131 200 170 146 196 194 179 123 126 136 151 123 124 132 134 135 221 122 140
127 116 140 101 110 124 140 141 118 140 150 128 121 133 134 118 133 169 134 168 168 112 147 191 194 124 177 168 126 169 200 163 127 128 125 125 124 129 161 193 133 216 210
113 129 132 104 138 127 133 110 141 129 118 110 135 134 143 109 115 161 164 197 131 115 168 124 116 123 180 161 189 134 178 119 132 180 137 236 126 128 224 123 256 232 135
139 129 119 126 132 126 139 121 138 103 107 106 139 140 153 140 155 138 165 160 122 101 183 125 187 190 192 199 198 215 194 201 201 123 130 127 207 234 228 233 132 215 136
123 124 123 130 127 135 121 136 149 109 107 114 107 148 151 135 100 166 115 150 117 125 124 116 184 199 115 197 127 182 125 126 122 206 225 240 229 226 127 239 135 250 244
128 125 127 138 136 131 130 124 132 141 114 112 153 149 158 180 125 121 187 119 126 155 154 178 196 153 128 191 194 162 192 202 209 205 239 227 174 130 224 227 145 222 234
123 126 131 127 119 137 129 134 123 124 120 134 141 194 174 170 125 127 136 200 186 186 188 177 185 201 201 191 197 145 203 240 233 242 228 231 242 199 134 196 226 228 228
125 127 131 145 135 146 144 142 132 135 128 141 148 156 180 189 181 128 195 157 119 192 193 180 197 202 188 188 197 194 226 209 245 242 238 230 129 204 213 214 215 224 220
132 129 137 125 129 136 131 142 132 141 134 141 184 177 178 164 187 187 185 118 180 188 186 198 193 191 195 196 206 240 250 227 238 222 170 169 213 216 216 215 222 230 215
140 134 125 130 129 119 126 128 127 149 130 143 175 181 177 194 117 156 117 123 185 199 195 190 199 192 201 199 232 229 220 193 133 217 221 212 212 222 207 215 211 229 206
127 133 131 131 140 137 134 140 166 121 141 182 179 190 130 184 122 125 200 191 195 208 194 197 192 198 201 219 239 228 214 227 230 230 207 226 216 221 241 225 224 210 190
138 136 122 124 131 138 135 148 174 156 191 189 185 131 181 125 134 193 197 202 201 201 199 208 206 208 220 149 219 218 249 237 236 231 235 239 223 228 216 199 216 195 191
129 134 129 132 122 126 151 194 184 191 190 187 184 150 124 194 190 194 203 200 194 198 222 213 227 149 230 237 234 235 228 224 212 210 208 208 215 215 203 202 210 198 186
185 185 136 134 134 191 133 194 193 191 205 192 184 188 195 200 201 194 197 198 213 209 207 220 236 227 230 229 227 220 211 213 220 225 231 231 229 228 217 209 197 195 192
225 211 196 210 118 200 203 200 194 194 194 196 200 197 198 193 195 200 220 208 228 217 236 227 223 221 225 220 205 262 215 215 211 206 205 203 212 208 214 214 218 223 219
226 224 208 207 208 210 206 204 204 206 204 203 201 205 210 213 203 204 216 219 215 222 218 223 225 222 205 206 204 207 204 203 201 196 197 203 212 213 209 205 199 206 220
229 215 233 218 218 220 216 214 215 223 218 211 203 200 202 205 214 215 229 227 222 226 224 214 200 206 202 206 203 193 191 220 248 245 242 238 235 227 219 205 204 205 212
212 216 215 218 215 218 217 215 207 211 207 209 208 213 221 210 216 218 224 222 216 206 205 206 204 203 208 194 236 247 237 230 224 212 207 212 213 206 199 206 203 209 211
228 225 222 222 214 216 216 214 214 219 220 212 212 217 221 222 221 215 207 201 201 196 207 259 256 247 246 246 219 216 213 208 208 205 206 203 200 205 206 207 212 214 213
218 216 216 214 200 205 207 208 211 214 216 215 213 216 211 206 200 205 204 214 227 227 220 236 255 253 223 219 214 212 206 200 199 195 204 207 205 214 219 225 234 230 227
215 123 208 209 208 217 217 215 215 218 213 210 205 202 201 205 208 208 223 235 231 231 231 223 215 213 209 206 209 207 201 200 208 209 211 214 217 222 229 239 241 248 261
125 212 224 216 213 219 221 215 208 204 200 208 213 199 206 205 222 224 220 222 215 210 216 212 206 204 209 204 202 202 210 208 213 212 215 220 228 232 241 275 294 294 297
220 228 220 220 216 207 219 198 204 208 183 212 213 218 219 219 220 218 224 219 209 207 202 195 195 203 204 205 208 204 207 216 221 226 248 284 286 283 273 286 256 294 310
220 217 213 215 206 196 201 193 209 210 212 207 208 206 204 200 221 231 226 224 215 211 216 195 205 203 200 207 203 204 213 242 275 272 269 274 265 316 307 308 379 408 464

GFSSE_2pvu_pres_030.txt.gz
Presure
102 98 104 111 116 127 112 132 112 109 104 120 108 131 122 118 116 117 115 123 123 110 168 113 100 110 120 131 168 119 103 110 189 134 182 196 115 169 124 197 124 123 144
96 96 134 98 112 107 133 135 115 116 99 97 112 104 114 132 125 104 114 103 139 157 125 107 143 118 138 127 130 137 135 137 99 185 169 126 121 186 207 203 222 139 131
101 126 128 112 132 100 132 103 115 102 110 141 106 121 133 124 140 138 98 130 126 131 110 114 101 130 92 125 129 143 137 199 177 143 150 117 132 191 157 188 202 185 207
133 130 112 110 130 139 143 130 117 126 123 128 113 91 116 140 118 104 132 131 123 119 104 114 110 103 189 143 141 201 162 192 131 195 170 162 118 155 191 129 190 123 195
109 139 135 103 107 135 137 89 136 122 115 113 119 136 137 117 127 142 120 124 126 108 112 107 103 109 121 115 144 199 193 186 187 187 185 173 127 190 192 200 125 208 207
123 111 126 96 131 132 140 136 139 143 132 138 141 141 141 142 135 116 128 120 144 130 111 119 109 114 205 136 194 177 171 186 113 147 178 132 132 194 160 185 192 218 208
130 127 135 132 95 136 135 144 149 136 140 146 147 133 135 112 128 136 121 134 126 126 127 196 145 130 158 191 169 178 196 180 184 183 137 179 118 185 193 199 210 203 220
122 125 136 102 129 111 137 130 87 127 144 123 149 133 119 136 129 120 137 119 122 125 136 132 131 175 192 208 177 188 180 181 151 125 157 147 191 190 206 206 209 206 252
139 128 118 130 143 141 111 88 124 133 123 122 142 128 120 116 138 199 126 122 128 132 124 138 162 184 177 184 112 188 141 129 119 181 186 192 182 199 211 200 204 231 230
123 130 125 131 140 128 122 117 136 125 110 128 126 120 122 140 137 131 189 130 129 123 211 142 172 192 204 188 185 111 178 196 189 192 195 181 201 208 206 201 238 234 230
131 136 143 124 119 130 127 125 133 127 125 119 123 135 126 146 130 132 152 197 161 166 183 176 116 141 183 183 190 192 189 196 188 191 199 199 215 202 230 221 215 148 211
113 127 131 123 124 122 134 133 132 127 132 138 140 136 128 133 138 123 158 193 180 176 161 138 178 185 184 189 182 185 187 184 199 195 195 216 209 216 243 220 253 228 233
113 124 118 127 119 123 131 120 130 136 133 129 138 133 203 139 115 188 182 199 183 179 193 183 187 187 177 182 184 185 193 196 214 210 208 220 214 244 227 245 243 242 229
106 110 124 131 126 125 130 134 126 136 128 147 138 131 131 140 193 201 186 199 191 193 191 189 198 184 184 190 184 195 197 203 204 216 218 220 243 242 236 224 211 209 216
112 108 122 127 133 124 127 128 153 204 207 177 176 191 191 193 185 195 197 187 191 190 182 186 184 189 192 198 201 193 190 214 219 214 238 220 240 222 209 217 216 214 208
116 117 117 116 133 139 125 129 173 180 207 206 209 187 205 206 188 190 190 182 187 185 187 181 188 189 188 191 191 202 214 228 238 236 238 221 212 209 236 243 249 276 268
126 124 128 124 126 129 128 132 209 208 204 197 201 210 207 208 195 199 198 203 184 185 182 179 190 188 211 212 225 237 236 223 225 218 209 206 245 235 240 248 247 257 279
127 128 125 126 136 127 207 182 212 212 189 194 200 182 183 196 186 139 189 192 193 189 193 191 192 212 213 218 228 225 221 208 209 243 241 238 233 233 220 220 220 218 216
123 123 126 134 174 194 210 196 149 192 187 191 195 190 185 173 192 191 186 183 180 194 187 207 209 216 226 221 215 213 225 222 222 232 228 224 229 238 230 220 220 207 204
132 134 195 203 214 204 131 177 192 192 190 197 188 187 193 191 193 191 197 220 217 213 223 216 218 230 211 206 215 222 232 225 227 238 235 231 219 220 223 228 218 208 207
222 219 223 216 208 129 208 232 235 218 219 210 208 224 223 216 216 218 219 213 207 203 223 215 219 197 219 211 203 212 213 235 230 237 237 233 229 227 227 226 224 224 226
239 238 236 235 224 118 111 166 214 217 216 218 225 226 221 223 213 208 205 209 222 214 224 200 207 194 209 207 207 221 228 234 224 217 217 214 211 209 213 222 226 225 216
231 231 231 165 166 111 214 225 186 213 208 206 208 212 211 211 215 219 221 215 208 190 201 200 197 208 204 205 225 235 221 213 210 204 214 214 230 245 243 259 262 281 269
203 116 116 117 189 207 217 213 209 210 209 209 211 220 223 216 211 199 192 191 196 213 201 210 206 205 211 230 241 220 219 209 211 220 223 229 248 251 262 259 245 251 253
168 133 213 213 213 208 208 210 216 217 220 219 212 206 197 196 209 189 205 211 203 210 204 202 198 208 213 242 230 219 210 216 220 226 229 241 268 278 244 245 239 236 261
218 207 211 214 208 217 219 223 218 204 199 193 198 194 188 190 202 205 202 205 209 204 200 198 207 215 236 235 212 212 215 219 223 225 262 267 269 252 264 296 273 274 336

GFSSE_2pvu_pres_033.txt.gz
Presure
125 109 110 103 100 109 126 127 126 119 98 129 124 126 91 115 99 116 105 109 122 123 127 96 125 141 104 121 110 113 105 101 121 111 112 132 134 114 149 184 141 212 197
118 131 133 98 101 96 85 100 103 106 143 114 102 114 125 111 124 153 102 135 139 136 111 99 112 106 130 111 106 106 121 93 92 129 138 110 135 212 193 147 199 165 197
128 125 129 107 130 106 135 130 118 100 104 102 128 129 132 130 118 89 133 106 142 114 109 112 105 136 107 133 125 102 103 107 108 113 105 141 138 156 186 198 174 136 125
136 121 132 98 103 126 138 116 108 119 124 87 130 138 139 139 146 119 138 121 137 108 117 138 117 96 141 123 104 124 121 116 119 135 127 167 178 202 196 189 197 188 194
127 122 111 141 107 135 85 125 98 125 126 133 139 144 148 143 143 132 146 150 119 147 118 113 137 106 111 115 114 113 124 130 111 146 155 197 199 187 185 167 198 190 189
131 128 117 119 140 126 96 141 125 114 131 138 158 84 150 123 121 115 153 125 104 125 108 128 111 124 123 126 127 121 128 179 138 174 190 192 183 181 189 198 185 188 119
121 110 132 101 134 124 128 120 140 143 132 150 130 89 132 117 135 121 132 119 111 106 141 126 125 120 115 116 126 167 183 129 145 193 188 204 184 129 173 184 176 162 134
126 118 120 125 120 129 143 148 101 148 117 126 85 151 127 118 117 122 123 124 119 118 132 134 123 124 142 201 154 194 179 177 181 181 189 184 187 134 183 155 130 193 198
132 138 135 118 106 115 121 98 124 120 117 135 119 121 141 118 118 141 130 131 117 124 140 130 134 131 238 215 205 164 185 195 179 145 184 183 133 190 186 189 195 194 208
124 137 143 139 122 119 129 124 111 106 140 126 122 129 122 135 123 126 132 132 120 149 155 126 228 203 207 195 207 194 184 177 110 187 198 183 189 185 184 194 193 206 234
135 127 128 124 132 126 123 111 124 116 127 109 122 118 124 130 130 131 144 132 132 133 130 208 207 206 195 194 205 193 186 183 184 182 185 183 180 194 190 198 209 228 242
143 139 115 136 123 108 117 123 116 119 125 136 124 123 125 126 131 142 164 170 206 194 203 194 193 191 198 200 198 183 187 184 198 185 182 185 195 193 216 216 241 240 232
113 118 141 125 116 118 113 114 129 116 119 122 130 125 125 126 119 190 188 161 192 199 188 197 200 180 199 192 206 183 186 187 188 181 198 191 181 237 244 212 226 226 228
134 112 120 124 111 110 110 112 119 112 119 118 123 126 124 127 140 207 200 203 209 207 187 209 199 192 201 203 185 197 191 194 198 191 196 197 231 238 215 211 228 214 208
130 125 129 111 181 149 134 121 117 114 119 121 135 121 155 156 183 169 207 197 213 197 201 198 187 212 211 192 185 184 182 191 184 204 195 228 215 217 225 210 238 235 245
126 120 140 114 115 125 142 124 118 120 123 127 124 131 136 201 213 200 206 203 200 193 203 190 185 189 188 192 194 194 194 189 203 207 213 215 216 221 208 234 230 237 240
120 112 110 118 111 126 120 119 122 125 128 134 201 216 217 202 195 213 195 184 199 194 190 182 189 193 192 192 190 182 228 235 192 201 217 219 196 174 208 215 217 223 234
114 114 119 111 117 119 123 123 124 127 132 203 202 212 210 198 209 191 204 184 188 186 186 194 192 181 182 183 224 216 212 218 231 216 208 198 206 214 212 255 249 244 236
119 122 120 121 125 126 130 133 178 166 192 199 198 199 191 184 201 193 190 193 189 195 189 183 185 193 210 215 211 215 220 216 213 195 213 208 212 209 241 231 225 217 217
136 124 128 125 117 132 143 203 191 191 191 202 158 168 123 193 193 196 192 193 194 197 224 221 216 210 206 211 213 213 194 199 208 205 212 204 242 247 232 220 216 209 205
127 119 122 130 123 134 195 198 196 190 207 112 148 120 194 187 196 211 215 219 223 207 208 207 215 219 212 209 191 199 200 213 203 212 203 217 249 238 223 220 215 222 222
130 135 133 170 211 205 204 203 217 221 139 124 199 211 211 220 222 217 211 210 212 217 223 213 206 192 191 210 205 208 203 211 201 206 212 248 241 228 217 222 228 232 232
134 223 220 220 222 225 234 233 238 133 228 229 219 215 216 207 206 207 216 223 217 206 199 195 191 201 212 205 206 207 203 198 201 211 246 235 221 216 224 229 233 254 269
237 225 226 226 226 229 222 222 217 221 215 214 213 207 210 214 221 222 200 195 199 195 199 209 202 198 195 202 205 198 197 203 203 229 233 218 216 224 226 256 264 259 262
229 232 234 233 216 218 215 214 213 211 203 208 215 216 220 211 196 195 197 201 197 203 200 199 216 217 202 200 194 195 200 206 234 229 219 214 229 250 276 256 252 255 266
211 206 209 207 204 220 210 207 210 202 209 217 204 195 202 193 187 200 193 194 196 195 206 210 205 197 198 194 203 205 237 229 221 218 223 244 253 255 248 256 259 263 255

GFSSE_2pvu_pres_036.txt.gz
Presure
126 130 121 122 126 110 130 88 119 106 97 98 119 122 131 130 96 112 114 135 130 117 117 135 107 133 139 103 127 121 108 113 135 121 113 131 100 122 97 111 105 114 117
138 124 120 116 123 128 127 111 113 94 96 113 139 100 136 106 136 93 130 121 134 133 122 130 131 141 129 137 139 119 125 109 135 115 124 111 111 106 106 127 120 125 142
106 129 90 136 124 123 133 98 133 144 114 93 125 83 117 96 129 136 147 133 131 122 115 123 109 141 105 137 107 111 115 102 95 115 129 107 110 109 127 109 128 161 214
136 138 124 130 133 131 121 140 104 115 106 82 132 94 138 135 122 135 131 134 134 115 124 122 140 117 121 133 103 100 113 121 111 108 112 116 113 114 202 209 138 177 205
133 118 131 102 140 140 138 135 132 143 136 122 111 86 138 117 120 138 111 128 133 111 105 141 126 111 129 105 95 126 108 110 114 130 122 183 185 215 207 174 160 197 180
110 135 120 142 137 145 138 144 135 140 140 132 129 149 152 134 110 133 115 116 137 156 109 123 118 136 129 113 125 107 109 112 109 224 117 215 204 151 195 200 189 200 196
148 129 128 125 139 129 134 147 138 153 125 140 108 122 104 139 103 130 127 122 116 135 111 120 134 113 116 115 112 132 148 122 114 124 168 213 216 194 181 178 190 193 192
128 118 125 134 131 137 138 131 130 135 108 90 147 104 112 123 143 122 111 115 121 114 111 123 119 136 131 116 133 122 231 199 213 210 193 187 186 196 190 186 194 193 190
143 134 124 138 114 135 156 93 121 125 112 104 148 113 134 118 121 102 111 118 123 121 122 118 125 131 135 207 231 173 209 221 203 205 189 192 198 189 191 190 185 185 196
104 139 142 137 141 127 109 142 133 116 115 123 127 140 113 117 120 136 121 128 123 123 126 125 126 129 167 210 133 209 180 208 189 197 187 197 206 192 192 200 191 192 197
155 152 136 124 129 143 138 132 136 116 121 112 131 115 110 139 116 116 118 119 121 125 119 132 130 135 182 139 202 206 197 208 201 203 191 207 199 195 183 193 197 198 207
172 164 126 145 142 131 140 116 109 109 109 120 101 115 117 111 115 117 116 121 121 126 125 139 212 172 205 203 199 201 208 198 196 195 197 192 191 196 194 192 205 230 224
138 205 141 141 144 135 107 138 121 119 107 107 122 114 108 120 119 117 123 125 120 130 220 199 161 204 131 199 197 124 196 197 189 195 209 196 191 187 203 208 212 234 232
148 150 148 156 128 151 115 113 120 106 128 126 122 120 119 118 120 125 127 126 130 214 210 203 200 204 215 192 196 192 199 201 199 199 194 192 230 233 220 219 221 211 225
145 155 151 150 138 111 137 120 109 129 117 123 123 122 119 123 127 127 132 135 166 204 199 171 197 195 200 198 194 203 195 193 191 190 206 202 231 219 201 217 206 195 204
154 119 131 146 128 126 121 116 105 115 112 120 124 128 128 132 131 185 167 191 220 205 205 213 202 198 200 200 203 196 191 194 213 217 213 224 196 218 207 195 210 201 213
129 133 127 126 131 124 150 118 118 117 118 121 124 132 129 137 142 178 205 153 179 203 214 201 195 211 192 192 193 196 193 205 215 214 222 217 198 203 209 206 202 214 203
148 201 110 113 148 116 114 115 120 119 124 126 124 127 133 157 185 204 187 211 205 194 196 193 192 191 199 202 214 215 214 214 220 213 209 201 199 222 207 206 218 210 210
130 118 112 119 122 114 118 120 125 128 120 126 127 129 143 207 191 163 195 200 192 195 188 190 195 195 216 209 206 225 220 214 208 202 200 205 210 210 210 215 217 203 207
115 153 211 117 118 122 129 126 128 120 129 127 133 178 195 189 172 191 191 191 200 198 192 218 218 214 206 214 212 211 207 203 205 202 206 206 203 209 212 206 204 209 207
119 116 118 123 124 127 126 131 126 129 133 202 204 204 193 195 196 194 222 196 215 219 221 207 210 221 210 204 200 205 206 211 211 205 208 227 216 206 201 207 215 224 248
116 118 120 132 135 132 124 133 134 138 183 177 201 196 198 202 234 218 219 218 212 214 218 213 206 200 202 206 203 205 205 217 223 219 211 206 203 207 215 217 239 238 236
120 128 133 196 129 133 211 215 213 217 219 225 220 220 224 221 219 213 209 212 216 207 199 199 203 202 201 205 214 224 215 205 203 201 206 213 214 225 233 236 233 234 239
200 133 133 156 218 226 229 224 221 221 222 224 221 218 213 215 207 213 211 200 196 204 203 197 200 202 207 220 210 199 201 203 203 205 210 232 228 226 219 231 233 263 268
226 222 219 217 213 213 221 224 221 219 213 215 221 221 220 219 216 193 195 202 197 194 193 193 209 219 205 201 200 201 199 203 214 221 233 232 227 227 229 260 265 263 262
221 219 211 219 212 203 214 220 209 216 221 213 213 200 202 195 194 203 196 194 194 188 206 221 212 199 200 201 199 205 212 213 239 226 223 229 233 260 268 267 269 274 259

GFSSE_2pvu_pres_042.txt.gz
Presure
109 114 111 120 131 133 116 119 120 120 123 112 110 80 115 98 111 110 96 97 116 90 87 85 121 113 132 120 115 131 94 123 116 111 136 115 135 114 102 112 99 102 102
105 117 106 120 100 132 81 123 111 116 112 115 120 118 89 132 103 95 95 151 136 120 102 127 118 126 143 141 137 134 112 136 129 108 117 130 112 111 120 101 96 109 107
102 132 123 130 125 73 129 138 124 121 123 125 127 128 134 104 110 90 131 135 120 122 99 120 145 142 129 130 105 111 117 124 111 119 113 118 106 107 99 123 135 108 113
104 107 135 127 134 101 108 130 127 119 131 126 139 141 92 113 114 108 81 128 139 126 125 122 138 120 136 111 114 134 110 125 120 124 116 107 126 115 109 119 122 130 121
127 112 135 136 131 135 102 112 120 132 142 121 142 138 135 132 136 111 138 133 124 104 129 141 128 89 101 109 104 132 140 107 108 107 108 104 107 112 107 122 128 136 203
124 132 127 135 123 105 147 122 116 120 128 132 127 139 143 136 100 97 141 110 134 105 116 104 128 111 120 118 118 107 132 103 106 110 110 109 105 108 124 131 121 141 200
125 132 125 136 146 134 141 125 134 129 132 138 133 127 127 79 142 100 148 114 108 97 93 117 126 125 105 109 108 107 102 105 140 116 113 113 123 117 123 133 137 143 195
133 127 130 115 133 137 141 127 132 120 132 123 140 141 135 142 101 105 131 127 147 111 117 123 144 103 108 118 108 129 112 112 115 112 122 115 137 175 163 135 181 203 217
192 135 132 119 114 127 140 133 139 151 138 143 141 143 141 143 123 127 131 112 99 131 122 123 106 107 109 118 138 114 128 113 121 125 122 138 129 138 161 216 155 216 215
135 136 138 142 134 130 98 89 112 118 153 143 119 132 130 150 150 133 118 110 109 120 116 127 117 112 112 125 112 113 115 117 122 119 132 128 147 212 210 221 209 205 205
188 199 138 119 135 124 132 132 137 138 127 123 154 183 150 129 135 132 141 114 110 108 121 111 108 110 113 112 112 117 116 126 130 130 122 141 218 206 210 196 201 208 217
134 139 144 129 118 119 131 135 141 146 147 132 139 131 128 134 144 107 119 138 112 110 111 119 113 114 119 112 119 117 121 122 136 131 136 174 205 208 205 192 202 222 235
217 144 121 126 124 134 137 114 135 134 144 138 122 144 131 143 123 144 108 134 105 115 111 111 110 121 122 120 128 127 126 138 131 132 114 170 196 202 207 205 219 230 208
220 111 213 122 132 92 126 210 137 141 140 137 151 135 124 153 106 151 114 115 125 120 107 109 115 114 119 119 130 131 138 152 131 166 175 201 204 212 221 230 217 231 222
233 170 219 124 121 132 164 176 144 126 145 141 145 111 154 128 157 133 118 117 115 121 112 117 116 118 125 124 134 173 159 141 145 178 202 232 241 236 217 216 216 204 202
239 239 117 222 165 123 127 141 136 141 134 147 120 132 133 125 128 128 123 123 115 109 116 119 120 126 128 141 140 157 137 200 199 209 213 206 223 225 216 209 211 212 206
217 231 229 150 222 159 144 139 121 218 216 137 123 143 137 145 119 124 129 116 161 119 113 118 129 135 140 133 147 156 195 201 207 213 215 202 217 206 209 213 210 220 223
183 212 221 220 134 142 146 120 195 122 146 195 128 155 128 140 153 124 122 115 119 127 126 131 142 134 205 141 198 202 196 205 226 208 215 207 202 212 197 225 221 213 208
200 168 210 210 213 201 175 176 228 175 130 205 180 127 146 119 138 114 126 125 124 132 135 153 139 149 205 180 209 234 220 203 214 209 202 198 200 211 218 206 204 205 206
206 168 132 186 184 150 155 213 145 203 201 192 132 203 131 156 127 121 120 131 140 196 191 211 205 210 233 228 218 205 218 213 206 195 201 194 216 206 200 213 211 195 211
219 133 201 208 200 211 136 204 138 145 196 132 138 127 123 112 124 127 142 135 207 206 205 207 217 225 206 219 218 214 203 201 194 201 210 212 199 200 212 208 211 213 204
155 203 203 206 206 202 192 191 177 138 136 176 130 136 126 128 133 147 199 204 211 214 214 229 208 214 215 207 195 203 201 202 193 206 209 198 193 201 209 210 211 204 217
219 183 225 213 209 195 195 188 202 199 116 140 141 132 164 200 203 202 205 217 236 222 212 215 219 214 206 204 203 205 201 206 208 214 196 197 199 206 207 221 216 216 234
161 203 189 208 191 143 145 140 202 128 125 133 194 198 203 215 218 227 221 211 217 223 231 218 203 203 203 202 199 196 203 206 210 194 207 204 207 205 214 217 216 245 229
209 203 112 191 195 128 202 131 202 195 194 198 225 224 219 217 214 215 205 203 223 215 216 204 204 199 203 198 197 201 203 206 201 202 201 211 211 216 220 217 228 228 231
115 126 125 147 155 161 194 193 189 191 215 226 226 224 191 214 198 226 219 222 208 204 204 203 196 208 197 198 203 204 199 197 202 191 208 201 214 220 226 224 224 230 244